SKYSAT-C4

Last updated on Wed May 14 2025 00:02:27 GMT+0000 (Coordinated Universal Time)

1 41771U 16058B 25133.55600624 .00009821 00000+0 28125-3 0 9992 2 41771 96.9578 169.7985 0000395 139.6156 220.5119 15.36111799483894
UTC large
Height (km)
Speed (km/s)
/
Latitude / Longitude
Inclination (degrees)
Orbital Period (minutes)
Azimuth
Elevation
Range (km)
Doppler Factor

Next 0 passes for location: London (51.5072 / 0.1276)

Sorry there are no passes over London.